[Date Prev][Date Next][Thread Prev][Thread Next] - [Date Index][Thread Index][Author Index]
2 Line ISS Keps 7-22
- Subject: [sarex] 2 Line ISS Keps 7-22
- From: "Dave Larsen PhD" <doc@xxxxxxxxxxx>
- Date: Mon, 22 Jul 2002 03:31:52 -0700
ISS
1 25544U 98067A 02203.14757382 .00017836 00000-0 22820-3 0 6847
2 25544 51.6357 237.4461 0008562 25.9912 41.3488 15.59256149209483
----
Via the sarex mailing list at AMSAT.ORG courtesy of AMSAT-NA.
To unsubscribe, send "unsubscribe sarex" to Majordomo@amsat.org
AMSAT Home